Location: Newark
(18.8198°N, 82.1672°E)
Time: 20:04:35
(UTC+00:00)

Envisat - Visible Passes

Search period start: 18 August 2019 00:00
Search period end: 28 August 2019 00:00
Orbit: 764 x 766 km, 98.1° (Epoch: 17 August)

Date Brightness Start Highest point End Pass type
(mag) Time Alt. Az. Time Alt. Az. Time Alt. Az.
19 Aug 5.8 14:06:00 10° SW 14:09:09 17° W 14:12:20 10° WNW visible
20 Aug 4.2 13:27:32 10° S 13:32:21 45° W 13:37:11 10° NNW visible
22 Aug 5.5 13:53:59 10° SSW 13:57:53 22° W 14:01:47 10° NW visible
23 Aug 3.6 13:16:07 10° S 13:21:06 61° W 13:26:07 10° NNW visible
24 Aug 6.2 14:22:29 10° WSW 14:23:28 11° W 14:24:27 10° W visible
25 Aug 5.0 13:42:14 10° SSW 13:46:37 30° W 13:51:01 10° NW visible
26 Aug 3.2 13:04:48 10° S 13:09:52 82° W 13:14:56 10° NNW visible
27 Aug 5.9 14:09:24 10° SW 14:12:11 15° W 14:14:58 10° WNW visible
